Вернуться в каталог

CZ-2C DEB

АктивенPO
NORAD 40289·DEBRIS·🇨🇳 China

Запущен Oct 27, 2014 с Jiuquan Satellite Launch Center

Loading…

Ближайшие Пролёты (ближайшие 24 часа)

TLE

СвежийSource: Space-Track

Эпоха: Sep 14, 2026, 01:01 UTC

1 40289U 14066D   26257.04246081  .00005663  00000-0  71203-3 0  9993
2 40289  98.4835 180.3441 0062106 223.3300 136.3018 14.81159264631420

Отслеживайте CZ-2C DEB в реальном времени с AllMySat

Download on the App Store